Starlink 30227

operational
NORAD ID: 57505 Int'l Des: 2023-113 Owner: SPXS Country: US Constellation: starlink
LEOCIRCULAR

Starlink 30227について

説明を読み込み中...

リアルタイム位置

3D地球を読み込み中...

次回通過

高度履歴

Altitude vs Time

uPlot chart will show altitude changes over time

軌道要素

1 57505U 23113L 25308.75276890 .00000327 00000-0 39290-4 0 9993
2 57505 43.0055 323.4300 0001124 270.5562 89.5151 15.02539088125010
Epoch: Nov 4, 2025 • Age: 7 hours

現在のステータス

高度 568.3 km
速度 7.58 km/s
衛星直下点 -34.60°S, 122.15°E
打ち上げ日 Aug 7, 2023
運用期間 2.2 years
タイプ internet

技術仕様

分類 Payload
質量 730.00 kg
乾燥質量 700.00 kg
総質量 730.00 kg
長さ 0.30 m
直径 4.10 m
スパン 29.00 m
形状 Box + pan
製造者 SPXS
バスタイプ Starlink V2M
フェーズステータス In Orbit
所有者/国 SPXS/US

大規模コンステレーション

Loading constellations...